LNR50JX LFQQ-LFCR

Flight info

Callsign LNR50JX
Flight time 1h 15m
Altitude 19000
Route MATIX Y50 REM B3 VATRI G40 TRO B373 MOU A27 MINPA
Aircraft A320/M-SDE3FGHIRWY/LB1

Departure

Time 2026-04-21 15:48
Airport Lille Airport (LFQQ)

Arrival

Time 2026-04-21 17:03
Airport Rodez–Aveyron Airport (LFCR)
Time Latitude Longitude Altitude Speed Heading
2026-04-21 14:53 50.57106 3.10612 152 ft 0 kts 348°
2026-04-21 14:56 50.57085 3.10555 152 ft 0 kts 27°
2026-04-21 14:59 50.57124 3.10742 152 ft 0 kts 348°
2026-04-21 15:34 50.57121 3.10743 151 ft 2 kts 347°
2026-04-21 15:34 50.57095 3.10756 151 ft 4 kts 330°
2026-04-21 15:34 50.57076 3.10781 151 ft 4 kts 294°
2026-04-21 15:35 50.57073 3.10808 151 ft 1 kts 257°
2026-04-21 15:35 50.57074 3.10813 151 ft 0 kts 257°
2026-04-21 15:39 50.57073 3.10811 151 ft 1 kts 257°
2026-04-21 15:39 50.57071 3.10797 151 ft 4 kts 256°
2026-04-21 15:39 50.57060 3.10738 151 ft 5 kts 248°
2026-04-21 15:40 50.57012 3.10694 151 ft 12 kts 176°
2026-04-21 15:40 50.56933 3.10721 151 ft 11 kts 168°
2026-04-21 15:40 50.56863 3.10733 151 ft 10 kts 192°
2026-04-21 15:40 50.56817 3.10626 151 ft 13 kts 257°
2026-04-21 15:41 50.56799 3.10498 151 ft 11 kts 257°
2026-04-21 15:41 50.56783 3.10386 151 ft 10 kts 258°
2026-04-21 15:41 50.56769 3.10288 151 ft 8 kts 258°
2026-04-21 15:41 50.56757 3.10201 151 ft 9 kts 257°
2026-04-21 15:42 50.56741 3.10088 151 ft 11 kts 257°
2026-04-21 15:42 50.56726 3.09981 151 ft 9 kts 257°
2026-04-21 15:42 50.56706 3.09845 151 ft 17 kts 257°
2026-04-21 15:42 50.56682 3.09670 152 ft 16 kts 257°
2026-04-21 15:43 50.56658 3.09503 151 ft 17 kts 257°
2026-04-21 15:43 50.56628 3.09293 151 ft 20 kts 257°
2026-04-21 15:43 50.56600 3.09114 151 ft 13 kts 249°
2026-04-21 15:43 50.56545 3.09053 151 ft 2 kts 179°
2026-04-21 15:44 50.56538 3.09056 151 ft 1 kts 168°
2026-04-21 15:44 50.56508 3.09066 151 ft 9 kts 167°
2026-04-21 15:44 50.56450 3.09083 152 ft 11 kts 177°
2026-04-21 15:44 50.56382 3.08965 153 ft 20 kts 258°
2026-04-21 15:45 50.56355 3.08763 152 ft 18 kts 257°
2026-04-21 15:45 50.56330 3.08582 153 ft 16 kts 260°
2026-04-21 15:45 50.56349 3.08418 151 ft 11 kts 288°
2026-04-21 15:45 50.56340 3.08344 151 ft 7 kts 218°
2026-04-21 15:46 50.56294 3.08395 152 ft 12 kts 84°
2026-04-21 15:46 50.56313 3.08472 152 ft 0 kts 78°
2026-04-21 15:46 50.56313 3.08475 152 ft 1 kts 78°
2026-04-21 15:46 50.56316 3.08499 152 ft 7 kts 78°
2026-04-21 15:47 50.56357 3.08786 152 ft 60 kts 77°
2026-04-21 15:47 50.56497 3.09764 153 ft 120 kts 77°
2026-04-21 15:47 50.56721 3.11302 169 ft 164 kts 75°
2026-04-21 15:47 50.56978 3.13102 716 ft 170 kts 79°
2026-04-21 15:48 50.56751 3.14921 1422 ft 181 kts 120°
2026-04-21 15:48 50.55730 3.16199 2004 ft 195 kts 145°
2026-04-21 15:48 50.54624 3.17240 2606 ft 0 kts 142°
2026-04-21 15:48 50.53384 3.18472 3166 ft 207 kts 142°
2026-04-21 15:49 50.52142 3.19765 3567 ft 225 kts 141°
2026-04-21 15:49 50.50775 3.21251 3897 ft 254 kts 141°
2026-04-21 15:49 50.49331 3.22926 4677 ft 260 kts 135°
2026-04-21 15:49 50.47999 3.24876 5554 ft 262 kts 131°
2026-04-21 15:50 50.46702 3.26935 6388 ft 269 kts 130°
2026-04-21 15:50 50.45411 3.29057 6945 ft 268 kts 130°
2026-04-21 15:50 50.44147 3.31192 7088 ft 266 kts 128°
2026-04-21 15:50 50.42931 3.33367 7029 ft 273 kts 129°
2026-04-21 15:51 50.41691 3.35978 6624 ft 308 kts 129°
2026-04-21 15:51 50.40378 3.37508 7032 ft 265 kts 130°
2026-04-21 15:51 50.39101 3.39585 7032 ft 264 kts 130°
2026-04-21 15:51 50.37827 3.41651 7018 ft 264 kts 131°
2026-04-21 15:52 50.36552 3.43731 7029 ft 265 kts 129°
2026-04-21 15:52 50.35321 3.45882 7027 ft 265 kts 127°
2026-04-21 15:52 50.34121 3.48065 7037 ft 264 kts 127°
2026-04-21 15:52 50.32914 3.50271 7670 ft 268 kts 127°
2026-04-21 15:53 50.31704 3.52468 8593 ft 269 kts 127°
2026-04-21 15:53 50.30475 3.54689 9437 ft 272 kts 127°
2026-04-21 15:53 50.29224 3.56944 10131 ft 281 kts 128°
2026-04-21 15:53 50.27893 3.59344 10418 ft 304 kts 127°
2026-04-21 15:54 50.26467 3.61905 10880 ft 318 kts 128°
2026-04-21 15:54 50.24996 3.64534 11537 ft 325 kts 128°
2026-04-21 15:54 50.23494 3.67208 12239 ft 329 kts 129°
2026-04-21 15:54 50.21971 3.69915 12958 ft 333 kts 127°
2026-04-21 15:55 50.20429 3.72654 13587 ft 338 kts 127°
2026-04-21 15:55 50.18867 3.75426 14211 ft 343 kts 129°
2026-04-21 15:55 50.17284 3.78234 14801 ft 348 kts 128°
2026-04-21 15:55 50.15671 3.81086 15374 ft 353 kts 129°
2026-04-21 15:56 50.14035 3.83979 15931 ft 358 kts 127°
2026-04-21 15:56 50.12355 3.86886 16449 ft 365 kts 134°
2026-04-21 15:56 50.10360 3.89384 16988 ft 372 kts 146°
2026-04-21 15:56 50.08024 3.91191 17528 ft 378 kts 160°
2026-04-21 15:57 50.05464 3.92172 18019 ft 384 kts 172°
2026-04-21 15:57 50.02782 3.92612 18490 ft 390 kts 174°
2026-04-21 15:57 50.00107 3.93049 18626 ft 390 kts 174°
2026-04-21 15:57 49.97542 3.93475 19205 ft 377 kts 174°
2026-04-21 15:58 49.94980 3.93908 19207 ft 373 kts 174°
2026-04-21 15:58 49.92371 3.94354 19205 ft 373 kts 174°
2026-04-21 15:58 49.89836 3.94783 19198 ft 372 kts 174°
2026-04-21 15:58 49.87270 3.95214 19198 ft 370 kts 174°
2026-04-21 15:59 49.84705 3.95645 19198 ft 372 kts 174°
2026-04-21 15:59 49.82138 3.96076 19198 ft 371 kts 174°
2026-04-21 15:59 49.79568 3.96508 19196 ft 372 kts 174°
2026-04-21 15:59 49.76987 3.96941 19196 ft 372 kts 174°
2026-04-21 16:00 49.74421 3.97372 19196 ft 371 kts 174°
2026-04-21 16:00 49.71855 3.97801 19192 ft 371 kts 174°
2026-04-21 16:00 49.69285 3.98228 19197 ft 371 kts 174°
2026-04-21 16:00 49.66717 3.98655 19194 ft 371 kts 175°
2026-04-21 16:01 49.64146 3.99083 19187 ft 371 kts 175°
2026-04-21 16:01 49.61561 3.99519 19188 ft 371 kts 175°
2026-04-21 16:01 49.58994 3.99949 19187 ft 371 kts 175°
2026-04-21 16:01 49.56426 4.00374 19189 ft 371 kts 175°
2026-04-21 16:02 49.53860 4.00799 19188 ft 371 kts 175°
2026-04-21 16:02 49.51291 4.01226 19189 ft 371 kts 175°
2026-04-21 16:02 49.48728 4.01653 19190 ft 371 kts 175°
2026-04-21 16:02 49.46170 4.02080 19188 ft 371 kts 175°
2026-04-21 16:03 49.43600 4.02509 19186 ft 371 kts 175°
2026-04-21 16:03 49.41068 4.02931 19184 ft 371 kts 175°
2026-04-21 16:03 49.38491 4.03356 19182 ft 372 kts 175°
2026-04-21 16:03 49.35921 4.03774 19178 ft 372 kts 175°
2026-04-21 16:04 49.33345 4.04191 19178 ft 372 kts 175°
2026-04-21 16:04 49.30764 4.04552 19180 ft 371 kts 180°
2026-04-21 16:04 49.28185 4.04604 19181 ft 371 kts 181°
2026-04-21 16:04 49.25592 4.04651 19181 ft 371 kts 181°
2026-04-21 16:05 49.23003 4.04705 19172 ft 372 kts 181°
2026-04-21 16:05 49.20424 4.04763 19157 ft 372 kts 181°
2026-04-21 16:05 49.17830 4.04821 19158 ft 372 kts 180°
2026-04-21 16:05 49.15241 4.04878 19163 ft 372 kts 181°
2026-04-21 16:06 49.12652 4.04936 19166 ft 373 kts 181°
2026-04-21 16:06 49.10089 4.05002 19166 ft 373 kts 181°
2026-04-21 16:06 49.07459 4.05073 19166 ft 373 kts 181°
2026-04-21 16:06 49.04899 4.05145 19167 ft 373 kts 180°
2026-04-21 16:07 49.02277 4.05224 19171 ft 373 kts 180°
2026-04-21 16:07 48.99680 4.05296 19165 ft 373 kts 181°
2026-04-21 16:07 48.97118 4.05361 19165 ft 374 kts 181°
2026-04-21 16:07 48.94483 4.05431 19166 ft 374 kts 181°
2026-04-21 16:08 48.89312 4.05563 19167 ft 374 kts 181°
2026-04-21 16:08 48.86705 4.05630 19169 ft 374 kts 181°
2026-04-21 16:08 48.84106 4.05701 19169 ft 374 kts 181°
2026-04-21 16:09 48.81500 4.05773 19170 ft 374 kts 181°
2026-04-21 16:09 48.78899 4.05845 19167 ft 374 kts 181°
2026-04-21 16:09 48.76297 4.05903 19172 ft 374 kts 181°
2026-04-21 16:09 48.73702 4.05939 19171 ft 374 kts 182°
2026-04-21 16:10 48.71095 4.05969 19171 ft 374 kts 182°
2026-04-21 16:10 48.68494 4.06004 19171 ft 374 kts 181°
2026-04-21 16:10 48.65894 4.06040 19170 ft 374 kts 182°
2026-04-21 16:10 48.63287 4.06072 19165 ft 374 kts 182°
2026-04-21 16:11 48.60687 4.06101 19169 ft 374 kts 182°
2026-04-21 16:11 48.58088 4.06136 19165 ft 374 kts 181°
2026-04-21 16:11 48.55505 4.05959 19139 ft 370 kts 192°
2026-04-21 16:11 48.52983 4.05217 19134 ft 369 kts 197°
2026-04-21 16:12 48.51323 4.04680 19122 ft 369 kts 197°
2026-04-21 16:12 48.47957 4.03595 19119 ft 370 kts 197°
2026-04-21 16:12 48.45434 4.02784 19120 ft 371 kts 197°
2026-04-21 16:12 48.42910 4.01975 19121 ft 371 kts 197°
2026-04-21 16:13 48.40385 4.01164 19119 ft 371 kts 197°
2026-04-21 16:13 48.37887 4.00366 19123 ft 371 kts 197°
2026-04-21 16:13 48.35358 3.99562 19108 ft 371 kts 198°
2026-04-21 16:13 48.32829 3.98762 19111 ft 371 kts 198°
2026-04-21 16:14 48.30301 3.97959 19113 ft 371 kts 198°
2026-04-21 16:14 48.27769 3.97155 19113 ft 372 kts 198°
2026-04-21 16:14 48.25236 3.96352 19119 ft 372 kts 198°
2026-04-21 16:14 48.22685 3.95645 19123 ft 373 kts 195°
2026-04-21 16:15 48.20112 3.95056 19122 ft 374 kts 194°
2026-04-21 16:15 48.17523 3.94528 19119 ft 375 kts 193°
2026-04-21 16:15 48.14942 3.94020 19101 ft 375 kts 194°
2026-04-21 16:15 48.12362 3.93503 19101 ft 374 kts 194°
2026-04-21 16:16 48.09774 3.92963 19103 ft 375 kts 194°
2026-04-21 16:16 48.07195 3.92410 19094 ft 375 kts 194°
2026-04-21 16:16 48.04615 3.91847 19101 ft 375 kts 195°
2026-04-21 16:16 48.02036 3.91281 19102 ft 375 kts 195°
2026-04-21 16:17 47.99455 3.90713 19102 ft 375 kts 195°
2026-04-21 16:17 47.96874 3.90146 19098 ft 375 kts 195°
2026-04-21 16:17 47.94289 3.89583 19077 ft 375 kts 195°
2026-04-21 16:17 47.91703 3.89024 19078 ft 376 kts 195°
2026-04-21 16:18 47.89987 3.88653 19075 ft 376 kts 195°
2026-04-21 16:18 47.87398 3.88090 19078 ft 376 kts 195°
2026-04-21 16:18 47.84807 3.87528 19078 ft 376 kts 195°
2026-04-21 16:18 47.82212 3.86967 19082 ft 377 kts 195°
2026-04-21 16:19 47.79619 3.86408 19078 ft 377 kts 195°
2026-04-21 16:19 47.77025 3.85849 19080 ft 377 kts 195°
2026-04-21 16:19 47.74422 3.85289 19082 ft 377 kts 195°
2026-04-21 16:19 47.71826 3.84730 19063 ft 377 kts 194°
2026-04-21 16:20 47.69230 3.84174 19065 ft 377 kts 195°
2026-04-21 16:20 47.66632 3.83617 19068 ft 377 kts 195°
2026-04-21 16:20 47.64029 3.83057 19064 ft 377 kts 195°
2026-04-21 16:20 47.61435 3.82500 19066 ft 377 kts 195°
2026-04-21 16:21 47.58833 3.81943 19071 ft 378 kts 194°
2026-04-21 16:21 47.56233 3.81386 19067 ft 378 kts 195°
2026-04-21 16:21 47.53664 3.80834 19069 ft 378 kts 195°
2026-04-21 16:21 47.51062 3.80269 19050 ft 377 kts 194°
2026-04-21 16:22 47.48465 3.79704 19054 ft 377 kts 194°
2026-04-21 16:22 47.45870 3.79142 19056 ft 378 kts 195°
2026-04-21 16:22 47.43264 3.78579 19067 ft 378 kts 195°
2026-04-21 16:22 47.40657 3.78018 19064 ft 378 kts 194°
2026-04-21 16:23 47.38063 3.77463 19067 ft 377 kts 194°
2026-04-21 16:23 47.35455 3.76906 19067 ft 377 kts 194°
2026-04-21 16:23 47.32865 3.76351 19070 ft 377 kts 194°
2026-04-21 16:23 47.30269 3.75793 19047 ft 377 kts 194°
2026-04-21 16:24 47.27677 3.75234 19052 ft 376 kts 194°
2026-04-21 16:24 47.25086 3.74676 19056 ft 376 kts 194°
2026-04-21 16:24 47.22497 3.74123 19055 ft 376 kts 194°
2026-04-21 16:24 47.19902 3.73571 19058 ft 376 kts 194°
2026-04-21 16:25 47.17315 3.73024 19072 ft 376 kts 194°
2026-04-21 16:25 47.14727 3.72473 19058 ft 376 kts 194°
2026-04-21 16:25 47.12139 3.71922 19058 ft 376 kts 194°
2026-04-21 16:25 47.09555 3.71373 19047 ft 376 kts 194°
2026-04-21 16:26 47.06959 3.70823 19050 ft 376 kts 194°
2026-04-21 16:26 47.04374 3.70275 19048 ft 376 kts 194°
2026-04-21 16:26 47.01814 3.69732 19046 ft 376 kts 194°
2026-04-21 16:26 46.99226 3.69183 19042 ft 376 kts 194°
2026-04-21 16:27 46.96605 3.68630 19042 ft 375 kts 194°
2026-04-21 16:27 46.94056 3.68091 19047 ft 375 kts 194°
2026-04-21 16:27 46.91477 3.67542 19053 ft 375 kts 194°
2026-04-21 16:27 46.88889 3.66992 19032 ft 375 kts 194°
2026-04-21 16:28 46.86310 3.66445 19041 ft 374 kts 194°
2026-04-21 16:28 46.83732 3.65902 19044 ft 374 kts 194°
2026-04-21 16:28 46.81153 3.65361 19046 ft 374 kts 194°
2026-04-21 16:28 46.78580 3.64820 19046 ft 374 kts 194°
2026-04-21 16:29 46.76006 3.64280 19046 ft 374 kts 194°
2026-04-21 16:29 46.73431 3.63740 19041 ft 373 kts 194°
2026-04-21 16:29 46.70875 3.63149 19040 ft 370 kts 199°
2026-04-21 16:29 46.68430 3.62086 19043 ft 366 kts 205°
2026-04-21 16:30 46.66014 3.60911 19036 ft 366 kts 205°
2026-04-21 16:30 46.63601 3.59737 19037 ft 366 kts 205°
2026-04-21 16:30 46.61187 3.58565 19037 ft 366 kts 205°
2026-04-21 16:30 46.58773 3.57394 19032 ft 366 kts 205°
2026-04-21 16:31 46.56363 3.56225 19033 ft 366 kts 205°
2026-04-21 16:31 46.53975 3.55070 19032 ft 366 kts 205°
2026-04-21 16:31 46.51559 3.53906 19032 ft 366 kts 205°
2026-04-21 16:31 46.49145 3.52748 19019 ft 365 kts 205°
2026-04-21 16:32 46.46732 3.51589 19023 ft 365 kts 205°
2026-04-21 16:32 46.44318 3.50428 19025 ft 365 kts 205°
2026-04-21 16:32 46.41908 3.49265 19023 ft 365 kts 205°
2026-04-21 16:32 46.39501 3.48098 19031 ft 365 kts 205°
2026-04-21 16:33 46.37092 3.46933 19031 ft 365 kts 205°
2026-04-21 16:33 46.34683 3.45770 19032 ft 365 kts 205°
2026-04-21 16:33 46.32273 3.44611 19035 ft 365 kts 205°
2026-04-21 16:33 46.29865 3.43461 19026 ft 365 kts 204°
2026-04-21 16:34 46.27449 3.42310 19032 ft 365 kts 204°
2026-04-21 16:34 46.25044 3.41167 19031 ft 364 kts 204°
2026-04-21 16:34 46.22638 3.40023 19034 ft 364 kts 204°
2026-04-21 16:34 46.20231 3.38877 19033 ft 364 kts 204°
2026-04-21 16:35 46.17826 3.37727 19035 ft 364 kts 205°
2026-04-21 16:35 46.15423 3.36576 19034 ft 364 kts 205°
2026-04-21 16:35 46.13018 3.35426 19035 ft 364 kts 205°
2026-04-21 16:35 46.10611 3.34277 19023 ft 364 kts 204°
2026-04-21 16:36 46.08208 3.33135 19005 ft 364 kts 204°
2026-04-21 16:36 46.05808 3.31995 19010 ft 363 kts 204°
2026-04-21 16:36 46.03409 3.30857 19013 ft 363 kts 204°
2026-04-21 16:36 46.01005 3.29717 19015 ft 363 kts 204°
2026-04-21 16:37 45.98613 3.28583 19017 ft 363 kts 204°
2026-04-21 16:37 45.96239 3.27460 19014 ft 362 kts 204°
2026-04-21 16:37 45.93845 3.26328 19015 ft 362 kts 204°
2026-04-21 16:37 45.91449 3.25195 19011 ft 362 kts 204°
2026-04-21 16:38 45.89058 3.24066 19015 ft 362 kts 204°
2026-04-21 16:38 45.86663 3.22938 19019 ft 362 kts 204°
2026-04-21 16:38 45.84264 3.21814 19017 ft 362 kts 204°
2026-04-21 16:38 45.81867 3.20694 19018 ft 362 kts 204°
2026-04-21 16:39 45.79454 3.19640 19018 ft 365 kts 198°
2026-04-21 16:39 45.76919 3.19165 19018 ft 371 kts 187°
2026-04-21 16:39 45.74330 3.19096 19017 ft 372 kts 186°
2026-04-21 16:39 45.71746 3.19034 19006 ft 372 kts 186°
2026-04-21 16:40 45.69155 3.18973 18990 ft 372 kts 186°
2026-04-21 16:40 45.66605 3.18913 18993 ft 371 kts 186°
2026-04-21 16:40 45.64023 3.18849 18991 ft 371 kts 186°
2026-04-21 16:40 45.61440 3.18783 18992 ft 371 kts 186°
2026-04-21 16:41 45.58865 3.18717 18990 ft 371 kts 186°
2026-04-21 16:41 45.56288 3.18651 18988 ft 370 kts 186°
2026-04-21 16:41 45.53704 3.18583 18989 ft 370 kts 186°
2026-04-21 16:41 45.51135 3.18514 18985 ft 370 kts 186°
2026-04-21 16:42 45.48557 3.18445 18979 ft 370 kts 186°
2026-04-21 16:42 45.45980 3.18380 18979 ft 370 kts 186°
2026-04-21 16:42 45.43403 3.18315 18978 ft 370 kts 186°
2026-04-21 16:42 45.40828 3.18247 18975 ft 370 kts 186°
2026-04-21 16:43 45.38252 3.18178 18975 ft 370 kts 186°
2026-04-21 16:43 45.35675 3.18109 18973 ft 370 kts 186°
2026-04-21 16:43 45.33099 3.18040 18954 ft 370 kts 186°
2026-04-21 16:43 45.30525 3.17975 18955 ft 370 kts 186°
2026-04-21 16:44 45.27954 3.17913 18955 ft 370 kts 186°
2026-04-21 16:44 45.25378 3.17847 18957 ft 370 kts 186°
2026-04-21 16:44 45.22801 3.17782 18959 ft 371 kts 186°
2026-04-21 16:44 45.20222 3.17716 18961 ft 370 kts 186°
2026-04-21 16:45 45.17635 3.17650 18952 ft 371 kts 186°
2026-04-21 16:45 45.15060 3.17556 18954 ft 369 kts 189°
2026-04-21 16:45 45.12570 3.16907 18948 ft 361 kts 202°
2026-04-21 16:45 45.10310 3.15555 18943 ft 353 kts 215°
2026-04-21 16:46 45.08326 3.13583 18858 ft 343 kts 227°
2026-04-21 16:46 45.06730 3.11179 18620 ft 329 kts 236°
2026-04-21 16:46 45.05288 3.08700 18383 ft 323 kts 236°
2026-04-21 16:46 45.03866 3.06274 18142 ft 319 kts 236°
2026-04-21 16:47 45.02450 3.03866 17852 ft 318 kts 235°
2026-04-21 16:47 45.01044 3.01476 17585 ft 316 kts 235°
2026-04-21 16:47 44.99644 2.99095 17321 ft 314 kts 235°
2026-04-21 16:47 44.98245 2.96716 17058 ft 313 kts 235°
2026-04-21 16:48 44.96856 2.94359 16800 ft 311 kts 235°
2026-04-21 16:48 44.95473 2.92017 16521 ft 310 kts 234°
2026-04-21 16:48 44.94102 2.89698 16278 ft 306 kts 234°
2026-04-21 16:48 44.92740 2.87398 15940 ft 304 kts 234°
2026-04-21 16:49 44.91386 2.85107 15585 ft 304 kts 234°
2026-04-21 16:49 44.90035 2.82819 15225 ft 303 kts 234°
2026-04-21 16:49 44.88689 2.80540 14858 ft 303 kts 234°
2026-04-21 16:49 44.87339 2.78262 14496 ft 302 kts 234°
2026-04-21 16:50 44.85989 2.75990 14131 ft 302 kts 234°
2026-04-21 16:50 44.84643 2.73729 13766 ft 302 kts 234°
2026-04-21 16:50 44.83297 2.71469 13379 ft 300 kts 234°
2026-04-21 16:50 44.81959 2.69225 13010 ft 298 kts 234°
2026-04-21 16:51 44.80648 2.67025 12651 ft 297 kts 234°
2026-04-21 16:51 44.79322 2.64799 12286 ft 296 kts 234°
2026-04-21 16:51 44.78002 2.62575 11892 ft 295 kts 234°
2026-04-21 16:51 44.76691 2.60359 11517 ft 295 kts 234°
2026-04-21 16:52 44.75388 2.58122 11121 ft 294 kts 234°
2026-04-21 16:52 44.74097 2.55891 10738 ft 295 kts 234°
2026-04-21 16:52 44.72802 2.53651 10357 ft 294 kts 234°
2026-04-21 16:52 44.71529 2.51457 10157 ft 286 kts 234°
2026-04-21 16:53 44.70270 2.49289 9857 ft 283 kts 234°
2026-04-21 16:53 44.69028 2.47147 9478 ft 283 kts 234°
2026-04-21 16:53 44.67786 2.45006 9075 ft 282 kts 233°
2026-04-21 16:53 44.66547 2.42875 8673 ft 282 kts 233°
2026-04-21 16:54 44.65337 2.40802 8385 ft 264 kts 233°
2026-04-21 16:54 44.64213 2.38887 8252 ft 246 kts 233°
2026-04-21 16:54 44.63144 2.37065 8135 ft 238 kts 232°
2026-04-21 16:54 44.62101 2.35286 8031 ft 235 kts 233°
2026-04-21 16:55 44.61081 2.33541 7935 ft 234 kts 233°
2026-04-21 16:55 44.59938 2.31901 7748 ft 238 kts 221°
2026-04-21 16:55 44.58623 2.30409 7195 ft 247 kts 220°
2026-04-21 16:55 44.57258 2.28888 6681 ft 254 kts 220°
2026-04-21 16:56 44.55870 2.27366 6258 ft 249 kts 216°
2026-04-21 16:56 44.54328 2.26550 6199 ft 238 kts 179°
2026-04-21 16:56 44.52764 2.27215 5933 ft 238 kts 144°
2026-04-21 16:56 44.51564 2.28790 5605 ft 238 kts 129°
2026-04-21 16:57 44.50543 2.30626 5269 ft 239 kts 125°
2026-04-21 16:57 44.49567 2.32523 4923 ft 241 kts 125°
2026-04-21 16:57 44.48579 2.34427 4598 ft 241 kts 126°
2026-04-21 16:57 44.47578 2.36305 4230 ft 243 kts 126°
2026-04-21 16:58 44.46541 2.38195 3817 ft 243 kts 127°
2026-04-21 16:58 44.45511 2.40026 3443 ft 236 kts 127°
2026-04-21 16:58 44.44500 2.41792 3070 ft 229 kts 127°
2026-04-21 16:58 44.43446 2.43382 2844 ft 215 kts 139°
2026-04-21 16:59 44.42229 2.44531 2818 ft 205 kts 151°
2026-04-21 16:59 44.40896 2.45196 3005 ft 206 kts 167°
2026-04-21 16:59 44.39518 2.45523 3056 ft 191 kts 169°
2026-04-21 16:59 44.38280 2.45848 3072 ft 173 kts 166°
2026-04-21 17:00 44.37295 2.46617 3089 ft 160 kts 124°
2026-04-21 17:00 44.36624 2.47841 3113 ft 158 kts 127°
2026-04-21 17:00 44.36174 2.48637 3059 ft 157 kts 127°
2026-04-21 17:00 44.35402 2.50345 2987 ft 154 kts 99°
2026-04-21 17:01 44.35660 2.51727 2957 ft 151 kts 47°
2026-04-21 17:01 44.36493 2.52614 2858 ft 152 kts 27°
2026-04-21 17:01 44.37436 2.53248 2750 ft 146 kts 22°
2026-04-21 17:01 44.38403 2.53314 2758 ft 145 kts 324°
2026-04-21 17:02 44.38885 2.52099 2459 ft 147 kts 288°
2026-04-21 17:02 44.39326 2.50846 2221 ft 143 kts 304°
2026-04-21 17:02 44.39937 2.49745 2050 ft 144 kts 307°
2026-04-21 17:02 44.40552 2.48671 1916 ft 133 kts 308°
2026-04-21 17:03 44.40953 2.47980 1908 ft 48 kts 309°
2026-04-21 17:03 44.41057 2.47806 1908 ft 14 kts 320°
2026-04-21 17:03 44.41085 2.47767 1914 ft 1 kts 242°
2026-04-21 17:03 44.41064 2.47790 1901 ft 10 kts 133°
2026-04-21 17:04 44.41031 2.47844 1905 ft 11 kts 129°
2026-04-21 17:04 44.40975 2.47940 1905 ft 16 kts 129°
2026-04-21 17:04 44.40867 2.48128 1908 ft 20 kts 129°
2026-04-21 17:04 44.40786 2.48268 1901 ft 16 kts 123°
2026-04-21 17:05 44.40796 2.48388 1901 ft 10 kts 44°
2026-04-21 17:05 44.40822 2.48417 1906 ft 0 kts 39°
2026-04-21 17:05 44.40823 2.48419 1906 ft 2 kts 38°
2026-04-21 17:06 44.40837 2.48433 1903 ft 2 kts 36°
2026-04-21 17:06 44.40864 2.48448 1912 ft 7 kts
2026-04-21 17:06 44.40896 2.48418 1902 ft 5 kts 309°
2026-04-21 17:06 44.40915 2.48386 1910 ft 4 kts 309°
2026-04-21 17:07 44.40928 2.48364 1906 ft 2 kts 308°
2026-04-21 17:07 44.40936 2.48349 1904 ft 3 kts 308°
2026-04-21 17:07 44.40952 2.48325 1903 ft 4 kts 320°
2026-04-21 17:07 44.40978 2.48329 1910 ft 4 kts 34°
2026-04-21 17:08 44.40986 2.48339 1900 ft 0 kts 40°
2026-04-21 17:08 44.40990 2.48343 1902 ft 1 kts 41°
2026-04-21 17:08 44.40990 2.48352 1904 ft 2 kts 77°
2026-04-21 17:08 44.40987 2.48364 1911 ft 0 kts 123°
2026-04-21 17:09 44.40976 2.48366 1906 ft 0 kts 168°